Year,Month,Day,Hour,Minute,Value (Times are PST for temperature in C)
2015,07,02,00,00,19.30
2015,07,02,00,01,19.30
2015,07,02,00,02,19.30
2015,07,02,00,03,19.20
2015,07,02,00,04,19.20
2015,07,02,00,05,19.20
2015,07,02,00,06,19.10
2015,07,02,00,07,19.10
2015,07,02,00,08,19.10
2015,07,02,00,09,19.10
2015,07,02,00,10,19.10
2015,07,02,00,11,19.00
2015,07,02,00,12,19.00
2015,07,02,00,13,19.00
2015,07,02,00,14,19.00
2015,07,02,00,15,19.00
2015,07,02,00,16,18.90
2015,07,02,00,17,18.90
2015,07,02,00,18,18.90
2015,07,02,00,19,18.90
2015,07,02,00,20,18.90
2015,07,02,00,21,18.90
2015,07,02,00,22,18.80
2015,07,02,00,23,18.80
2015,07,02,00,24,18.80
2015,07,02,00,25,18.80
2015,07,02,00,26,18.80
2015,07,02,00,27,18.80
2015,07,02,00,28,18.80
2015,07,02,00,29,18.70
2015,07,02,00,30,18.70
2015,07,02,00,31,18.70
2015,07,02,00,32,18.70
2015,07,02,00,33,18.70
2015,07,02,00,34,18.70
2015,07,02,00,35,18.60
2015,07,02,00,36,18.60
2015,07,02,00,37,18.60
2015,07,02,00,38,18.60
2015,07,02,00,39,18.50
2015,07,02,00,40,18.50
2015,07,02,00,41,18.40
2015,07,02,00,42,18.40
2015,07,02,00,43,18.40
2015,07,02,00,44,18.30
2015,07,02,00,45,18.30
2015,07,02,00,46,18.30
2015,07,02,00,47,18.30
2015,07,02,00,48,18.20
2015,07,02,00,49,18.20
2015,07,02,00,50,18.20
2015,07,02,00,51,18.20
2015,07,02,00,52,18.20
2015,07,02,00,53,18.20
2015,07,02,00,54,18.20
2015,07,02,00,55,18.20
2015,07,02,00,56,18.10
2015,07,02,00,57,18.10
2015,07,02,00,58,18.10
2015,07,02,00,59,18.10
2015,07,02,01,00,18.10
2015,07,02,01,01,18.10
2015,07,02,01,02,18.10
2015,07,02,01,03,18.10
2015,07,02,01,04,18.10
2015,07,02,01,05,18.10
2015,07,02,01,06,18.10
2015,07,02,01,07,18.10
2015,07,02,01,08,18.10
2015,07,02,01,09,18.10
2015,07,02,01,10,18.10
2015,07,02,01,11,18.10
2015,07,02,01,12,18.10
2015,07,02,01,13,18.10
2015,07,02,01,14,18.10
2015,07,02,01,15,18.10
2015,07,02,01,16,18.00
2015,07,02,01,17,18.00
2015,07,02,01,18,18.00
2015,07,02,01,19,17.90
2015,07,02,01,20,17.90
2015,07,02,01,21,17.90
2015,07,02,01,22,17.90
2015,07,02,01,23,17.90
2015,07,02,01,24,17.90
2015,07,02,01,25,17.90
2015,07,02,01,26,17.90
2015,07,02,01,27,17.80
2015,07,02,01,28,17.80
2015,07,02,01,29,17.80
2015,07,02,01,30,17.80
2015,07,02,01,31,17.80
2015,07,02,01,32,17.80
2015,07,02,01,33,17.80
2015,07,02,01,34,17.80
2015,07,02,01,35,17.80
2015,07,02,01,36,17.80
2015,07,02,01,37,17.70
2015,07,02,01,38,17.70
2015,07,02,01,39,17.70
2015,07,02,01,40,17.70
2015,07,02,01,41,17.70
2015,07,02,01,42,17.70
2015,07,02,01,43,17.60
2015,07,02,01,44,17.60
2015,07,02,01,45,17.60
2015,07,02,01,46,17.60
2015,07,02,01,47,17.60
2015,07,02,01,48,17.60
2015,07,02,01,49,17.50
2015,07,02,01,50,17.50
2015,07,02,01,51,17.50
2015,07,02,01,52,17.50
2015,07,02,01,53,17.50
2015,07,02,01,54,17.50
2015,07,02,01,55,17.50
2015,07,02,01,56,17.40
2015,07,02,01,57,17.40
2015,07,02,01,58,17.40
2015,07,02,01,59,17.40
2015,07,02,02,00,17.40
2015,07,02,02,01,17.40
2015,07,02,02,02,17.40
2015,07,02,02,03,17.40
2015,07,02,02,04,17.40
2015,07,02,02,05,17.40
2015,07,02,02,06,17.40
2015,07,02,02,07,17.30
2015,07,02,02,08,17.30
2015,07,02,02,09,17.30
2015,07,02,02,10,17.30
2015,07,02,02,11,17.30
2015,07,02,02,12,17.30
2015,07,02,02,13,17.20
2015,07,02,02,14,17.20
2015,07,02,02,15,17.20
2015,07,02,02,16,17.20
2015,07,02,02,17,17.20
2015,07,02,02,18,17.10
2015,07,02,02,19,17.10
2015,07,02,02,20,17.10
2015,07,02,02,21,17.10
2015,07,02,02,22,17.00
2015,07,02,02,23,17.00
2015,07,02,02,24,17.00
2015,07,02,02,25,16.90
2015,07,02,02,26,16.90
2015,07,02,02,27,16.90
2015,07,02,02,28,16.90
2015,07,02,02,29,16.80
2015,07,02,02,30,16.80
2015,07,02,02,31,16.80
2015,07,02,02,32,16.80
2015,07,02,02,33,16.80
2015,07,02,02,34,16.70
2015,07,02,02,35,16.70
2015,07,02,02,36,16.70
2015,07,02,02,37,16.70
2015,07,02,02,38,16.70
2015,07,02,02,39,16.70
2015,07,02,02,40,16.70
2015,07,02,02,41,16.70
2015,07,02,02,42,16.70
2015,07,02,02,43,16.60
2015,07,02,02,44,16.60
2015,07,02,02,45,16.60
2015,07,02,02,46,16.60
2015,07,02,02,47,16.60
2015,07,02,02,48,16.50
2015,07,02,02,49,16.50
2015,07,02,02,50,16.50
2015,07,02,02,51,16.50
2015,07,02,02,52,16.40
2015,07,02,02,53,16.40
2015,07,02,02,54,16.40
2015,07,02,02,55,16.40
2015,07,02,02,56,16.40
2015,07,02,02,57,16.40
2015,07,02,02,58,16.40
2015,07,02,02,59,16.30
2015,07,02,03,00,16.30
2015,07,02,03,01,16.30
2015,07,02,03,02,16.30
2015,07,02,03,03,16.30
2015,07,02,03,04,16.30
2015,07,02,03,05,16.30
2015,07,02,03,06,16.20
2015,07,02,03,07,16.20
2015,07,02,03,08,16.20
2015,07,02,03,09,16.20
2015,07,02,03,10,16.20
2015,07,02,03,11,16.20
2015,07,02,03,12,16.20
2015,07,02,03,13,16.20
2015,07,02,03,14,16.20
2015,07,02,03,15,16.20
2015,07,02,03,16,16.20
2015,07,02,03,17,16.20
2015,07,02,03,18,16.20
2015,07,02,03,19,16.20
2015,07,02,03,20,16.20
2015,07,02,03,21,16.20
2015,07,02,03,22,16.20
2015,07,02,03,23,16.20
2015,07,02,03,24,16.20
2015,07,02,03,25,16.20
2015,07,02,03,26,16.10
2015,07,02,03,27,16.10
2015,07,02,03,28,16.10
2015,07,02,03,29,16.10
2015,07,02,03,30,16.10
2015,07,02,03,31,16.10
2015,07,02,03,32,16.10
2015,07,02,03,33,16.10
2015,07,02,03,34,16.10
2015,07,02,03,35,16.00
2015,07,02,03,36,16.00
2015,07,02,03,37,16.00
2015,07,02,03,38,16.00
2015,07,02,03,39,15.90
2015,07,02,03,40,15.90
2015,07,02,03,41,15.90
2015,07,02,03,42,15.90
2015,07,02,03,43,15.90
2015,07,02,03,44,15.90
2015,07,02,03,45,15.90
2015,07,02,03,46,15.80
2015,07,02,03,47,15.80
2015,07,02,03,48,15.80
2015,07,02,03,49,15.80
2015,07,02,03,50,15.80
2015,07,02,03,51,15.80
2015,07,02,03,52,15.80
2015,07,02,03,53,15.80
2015,07,02,03,54,15.80
2015,07,02,03,55,15.80
2015,07,02,03,56,15.80
2015,07,02,03,57,15.80
2015,07,02,03,58,15.80
2015,07,02,03,59,15.80
2015,07,02,04,00,15.80
2015,07,02,04,01,15.80
2015,07,02,04,02,15.80
2015,07,02,04,03,15.80
2015,07,02,05,02,15.20
2015,07,02,05,03,15.20
2015,07,02,05,04,15.20
2015,07,02,05,05,15.20
2015,07,02,05,06,15.20
2015,07,02,05,07,15.20
2015,07,02,05,08,15.20
2015,07,02,05,09,15.20
2015,07,02,05,10,15.20
2015,07,02,05,11,15.20
2015,07,02,05,12,15.20
2015,07,02,05,13,15.20
2015,07,02,05,14,15.10
2015,07,02,05,15,15.10
2015,07,02,05,16,15.10
2015,07,02,05,17,15.10
2015,07,02,05,18,15.10
2015,07,02,05,19,15.10
2015,07,02,05,20,15.10
2015,07,02,05,21,15.10
2015,07,02,05,22,15.10
2015,07,02,05,23,15.10
2015,07,02,05,24,15.10
2015,07,02,05,25,15.10
2015,07,02,05,26,15.10
2015,07,02,05,27,15.10
2015,07,02,05,28,15.10
2015,07,02,05,29,15.10
2015,07,02,05,30,15.00
2015,07,02,05,31,15.00
2015,07,02,05,32,15.00
2015,07,02,05,33,15.00
2015,07,02,05,34,15.00
2015,07,02,05,35,15.00
2015,07,02,05,36,15.00
2015,07,02,05,37,15.00
2015,07,02,05,38,15.00
2015,07,02,05,39,15.00
2015,07,02,05,40,15.00
2015,07,02,05,41,15.00
2015,07,02,05,42,15.00
2015,07,02,05,43,15.00
2015,07,02,05,44,15.00
2015,07,02,05,45,15.00
2015,07,02,05,46,15.00
2015,07,02,05,47,15.00
2015,07,02,05,48,15.00
2015,07,02,05,49,15.00
2015,07,02,05,50,15.00
2015,07,02,05,51,15.00
2015,07,02,05,52,15.00
2015,07,02,05,53,15.00
2015,07,02,05,54,15.00
2015,07,02,05,55,15.00
2015,07,02,05,56,15.00
2015,07,02,05,57,15.00
2015,07,02,05,58,15.00
2015,07,02,05,59,15.00
2015,07,02,06,00,15.10
2015,07,02,06,01,15.10
2015,07,02,06,02,15.10
2015,07,02,06,03,15.10
2015,07,02,06,04,15.20
2015,07,02,06,05,15.20
2015,07,02,06,06,15.20
2015,07,02,06,07,15.20
2015,07,02,06,08,15.30
2015,07,02,06,09,15.30
2015,07,02,06,10,15.30
2015,07,02,06,11,15.40
2015,07,02,06,12,15.40
2015,07,02,06,13,15.40
2015,07,02,06,14,15.50
2015,07,02,06,15,15.50
2015,07,02,06,16,15.50
2015,07,02,06,17,15.50
2015,07,02,06,18,15.50
2015,07,02,06,19,15.60
2015,07,02,06,20,15.60
2015,07,02,06,21,15.60
2015,07,02,06,22,15.60
2015,07,02,06,23,15.70
2015,07,02,06,24,15.70
2015,07,02,06,25,15.70
2015,07,02,06,26,15.70
2015,07,02,06,27,15.80
2015,07,02,06,28,15.80
2015,07,02,06,29,15.80
2015,07,02,06,30,15.80
2015,07,02,06,31,15.80
2015,07,02,06,32,15.80
2015,07,02,06,33,15.90
2015,07,02,06,34,15.90
2015,07,02,06,35,15.90
2015,07,02,06,36,16.00
2015,07,02,06,37,16.00
2015,07,02,06,38,16.00
2015,07,02,06,39,16.10
2015,07,02,06,40,16.10
2015,07,02,06,41,16.10
2015,07,02,06,42,16.20
2015,07,02,06,43,16.20
2015,07,02,06,44,16.20
2015,07,02,06,45,16.20
2015,07,02,06,46,16.30
2015,07,02,06,47,16.30
2015,07,02,06,48,16.30
2015,07,02,06,49,16.40
2015,07,02,06,50,16.40
2015,07,02,06,51,16.40
2015,07,02,06,52,16.40
2015,07,02,06,53,16.50
2015,07,02,06,54,16.50
2015,07,02,06,55,16.50
2015,07,02,06,56,16.60
2015,07,02,06,57,16.60
2015,07,02,06,58,16.70
2015,07,02,06,59,16.70
2015,07,02,07,00,16.70
2015,07,02,07,01,16.70
2015,07,02,07,02,16.80
2015,07,02,07,03,16.80
2015,07,02,07,04,16.80
2015,07,02,07,05,16.80
2015,07,02,07,06,16.80
2015,07,02,07,07,16.80
2015,07,02,07,08,16.80
2015,07,02,07,09,16.90
2015,07,02,07,10,16.90
2015,07,02,07,11,16.90
2015,07,02,07,12,16.90
2015,07,02,07,13,17.00
2015,07,02,07,14,17.00
2015,07,02,07,15,17.00
2015,07,02,07,16,17.10
2015,07,02,07,17,17.10
2015,07,02,07,18,17.20
2015,07,02,07,19,17.20
2015,07,02,07,20,17.20
2015,07,02,07,21,17.20
2015,07,02,07,22,17.30
2015,07,02,07,23,17.30
2015,07,02,07,24,17.30
2015,07,02,07,25,17.30
2015,07,02,07,26,17.30
2015,07,02,07,27,17.30
2015,07,02,07,28,17.30
2015,07,02,07,29,17.30
2015,07,02,07,30,17.30
2015,07,02,07,31,17.30
2015,07,02,07,32,17.30
2015,07,02,07,33,17.30
2015,07,02,07,34,17.30
2015,07,02,07,35,17.30
2015,07,02,07,36,17.30
2015,07,02,07,37,17.30
2015,07,02,07,38,17.30
2015,07,02,07,39,17.40
2015,07,02,07,40,17.50
2015,07,02,07,41,17.50
2015,07,02,07,42,17.60
2015,07,02,07,43,17.60
2015,07,02,07,44,17.60
2015,07,02,07,45,17.60
2015,07,02,07,46,17.70
2015,07,02,07,47,17.70
2015,07,02,07,48,17.70
2015,07,02,07,49,17.70
2015,07,02,07,50,17.70
2015,07,02,07,51,17.70
2015,07,02,07,52,17.70
2015,07,02,07,53,17.70
2015,07,02,07,54,17.80
2015,07,02,07,55,17.80
2015,07,02,07,56,17.80
2015,07,02,07,57,17.80
2015,07,02,07,58,17.80
2015,07,02,07,59,17.80
2015,07,02,08,00,17.80
2015,07,02,08,01,17.90
2015,07,02,08,02,17.90
2015,07,02,08,03,17.80
2015,07,02,08,04,17.80
2015,07,02,08,05,17.80
2015,07,02,08,06,17.80
2015,07,02,08,07,17.80
2015,07,02,08,08,17.80
2015,07,02,08,09,17.90
2015,07,02,08,10,17.90
2015,07,02,08,11,17.90
2015,07,02,08,12,18.00
2015,07,02,08,13,18.00
2015,07,02,08,14,18.00
2015,07,02,08,15,18.10
2015,07,02,08,16,18.10
2015,07,02,08,17,18.10
2015,07,02,08,18,18.20
2015,07,02,08,19,18.30
2015,07,02,08,20,18.30
2015,07,02,08,21,18.30
2015,07,02,08,22,18.30
2015,07,02,08,23,18.30
2015,07,02,08,24,18.30
2015,07,02,08,25,18.40
2015,07,02,08,26,18.50
2015,07,02,08,27,18.50
2015,07,02,08,28,18.60
2015,07,02,08,29,18.60
2015,07,02,08,30,18.70
2015,07,02,08,31,18.70
2015,07,02,08,32,18.80
2015,07,02,08,33,18.70
2015,07,02,08,34,18.70
2015,07,02,08,35,18.60
2015,07,02,08,36,18.60
2015,07,02,08,37,18.60
2015,07,02,08,38,18.50
2015,07,02,08,39,18.50
2015,07,02,08,40,18.60
2015,07,02,08,41,18.60
2015,07,02,08,42,18.60
2015,07,02,08,43,18.60
2015,07,02,08,44,18.70
2015,07,02,08,45,18.70
2015,07,02,08,46,18.70
2015,07,02,08,47,18.80
2015,07,02,08,48,18.80
2015,07,02,08,49,18.80
2015,07,02,08,50,18.90
2015,07,02,08,51,18.90
2015,07,02,08,52,19.00
2015,07,02,08,53,19.00
2015,07,02,08,54,18.90
2015,07,02,08,55,19.00
2015,07,02,08,56,19.00
2015,07,02,08,57,19.00
2015,07,02,08,58,19.00
2015,07,02,08,59,19.10
2015,07,02,09,00,19.10
2015,07,02,09,01,19.10
2015,07,02,09,02,19.20
2015,07,02,09,03,19.20
2015,07,02,09,04,19.30
2015,07,02,09,05,19.40
2015,07,02,09,06,19.40
2015,07,02,09,07,19.40
2015,07,02,09,08,19.40
2015,07,02,09,09,19.40
2015,07,02,09,10,19.30
2015,07,02,09,11,19.40
2015,07,02,09,12,19.40
2015,07,02,09,13,19.50
2015,07,02,09,14,19.60
2015,07,02,09,15,19.60
2015,07,02,09,16,19.70
2015,07,02,09,17,19.80
2015,07,02,09,18,19.90
2015,07,02,09,19,19.90
2015,07,02,09,20,20.00
2015,07,02,09,21,20.10
2015,07,02,09,22,20.10
2015,07,02,09,23,20.10
2015,07,02,09,24,20.10
2015,07,02,09,25,20.10
2015,07,02,09,26,20.10
2015,07,02,09,27,20.10
2015,07,02,09,28,20.10
2015,07,02,09,29,20.10
2015,07,02,09,30,20.10
2015,07,02,09,31,20.10
2015,07,02,09,32,20.20
2015,07,02,09,33,20.20
2015,07,02,09,34,20.20
2015,07,02,09,35,20.20
2015,07,02,09,36,20.30
2015,07,02,09,37,20.40
2015,07,02,09,38,20.40
2015,07,02,09,39,20.40
2015,07,02,09,40,20.40
2015,07,02,09,41,20.30
2015,07,02,09,42,20.30
2015,07,02,09,43,20.30
2015,07,02,09,44,20.20
2015,07,02,09,45,20.20
2015,07,02,09,46,20.30
2015,07,02,09,47,20.40
2015,07,02,09,48,20.30
2015,07,02,09,49,20.20
2015,07,02,09,50,20.20
2015,07,02,09,51,20.20
2015,07,02,09,52,20.30
2015,07,02,09,53,20.50
2015,07,02,09,54,20.50
2015,07,02,09,55,20.50
2015,07,02,09,56,20.60
2015,07,02,09,57,20.70
2015,07,02,09,58,20.80
2015,07,02,09,59,20.80
2015,07,02,10,00,20.70
2015,07,02,10,01,20.70
2015,07,02,10,02,20.60
2015,07,02,10,03,20.50
2015,07,02,10,04,20.50
2015,07,02,10,05,20.40
2015,07,02,10,06,20.50
2015,07,02,10,07,20.50
2015,07,02,10,08,20.50
2015,07,02,10,09,20.60
2015,07,02,10,10,20.60
2015,07,02,10,11,20.70
2015,07,02,10,12,20.70
2015,07,02,10,13,20.70
2015,07,02,10,14,20.70
2015,07,02,10,15,20.70
2015,07,02,10,16,20.70
2015,07,02,10,17,20.70
2015,07,02,10,18,20.80
2015,07,02,10,19,20.80
2015,07,02,10,20,20.80
2015,07,02,10,21,20.80
2015,07,02,10,22,20.80
2015,07,02,10,23,20.90
2015,07,02,10,24,21.00
2015,07,02,10,25,21.00
2015,07,02,10,26,21.10
2015,07,02,10,27,21.20
2015,07,02,10,28,21.20
2015,07,02,10,29,21.30
2015,07,02,10,30,21.40
2015,07,02,10,31,21.40
2015,07,02,10,32,21.40
2015,07,02,10,33,21.50
2015,07,02,10,34,21.50
2015,07,02,10,35,21.60
2015,07,02,10,36,21.60
2015,07,02,10,37,21.60
2015,07,02,10,38,21.60
2015,07,02,10,39,21.60
2015,07,02,10,40,21.60
2015,07,02,10,41,21.60
2015,07,02,10,42,21.70
2015,07,02,10,43,21.80
2015,07,02,10,44,21.80
2015,07,02,10,45,21.90
2015,07,02,10,46,21.90
2015,07,02,10,47,21.90
2015,07,02,10,48,22.00
2015,07,02,10,49,22.10
2015,07,02,10,50,22.20
2015,07,02,10,51,22.40
2015,07,02,10,52,22.50
2015,07,02,10,53,22.50
2015,07,02,10,54,22.50
2015,07,02,10,55,22.50
2015,07,02,10,56,22.50
2015,07,02,10,57,22.60
2015,07,02,10,58,22.60
2015,07,02,10,59,22.60
2015,07,02,11,00,22.60
2015,07,02,11,01,22.60
2015,07,02,11,02,22.60
2015,07,02,11,03,22.60
2015,07,02,11,04,22.50
2015,07,02,11,05,22.50
2015,07,02,11,06,22.50
2015,07,02,11,07,22.60
2015,07,02,11,08,22.60
2015,07,02,11,09,22.60
2015,07,02,11,10,22.80
2015,07,02,11,11,22.90
2015,07,02,11,12,22.90
2015,07,02,11,13,22.90
2015,07,02,11,14,22.90
2015,07,02,11,15,22.90
2015,07,02,11,16,22.80
2015,07,02,11,17,22.80
2015,07,02,11,18,22.80
2015,07,02,11,19,22.80
2015,07,02,11,20,22.80
2015,07,02,11,21,22.80
2015,07,02,11,22,22.80
2015,07,02,11,23,22.80
2015,07,02,11,24,22.90
2015,07,02,11,25,23.10
2015,07,02,11,26,23.20
2015,07,02,11,27,23.30
2015,07,02,11,28,23.30
2015,07,02,11,29,23.30
2015,07,02,11,30,23.20
2015,07,02,11,31,23.20
2015,07,02,11,32,23.30
2015,07,02,11,33,23.40
2015,07,02,11,34,23.40
2015,07,02,11,35,23.40
2015,07,02,11,36,23.40
2015,07,02,11,37,23.30
2015,07,02,11,38,23.30
2015,07,02,11,39,23.30
2015,07,02,11,40,23.30
2015,07,02,11,41,23.30
2015,07,02,11,42,23.30
2015,07,02,11,43,23.30
2015,07,02,11,44,23.20
2015,07,02,11,45,23.10
2015,07,02,11,46,23.10
2015,07,02,11,47,23.10
2015,07,02,11,48,23.20
2015,07,02,11,49,23.20
2015,07,02,11,50,23.20
2015,07,02,11,51,23.30
2015,07,02,11,52,23.40
2015,07,02,11,53,23.40
2015,07,02,11,54,23.40
2015,07,02,11,55,23.40
2015,07,02,11,56,23.50
2015,07,02,11,57,23.60
2015,07,02,11,58,23.60
2015,07,02,11,59,23.60
2015,07,02,12,00,23.60
2015,07,02,12,01,23.60
2015,07,02,12,02,23.60
2015,07,02,12,03,23.60
2015,07,02,12,04,23.60
2015,07,02,12,05,23.60
2015,07,02,12,06,23.60
2015,07,02,12,07,23.60
2015,07,02,12,08,23.60
2015,07,02,12,09,23.60
2015,07,02,12,10,23.70
2015,07,02,12,11,23.80
2015,07,02,12,12,23.80
2015,07,02,12,13,23.90
2015,07,02,12,14,23.90
2015,07,02,12,15,23.90
2015,07,02,12,16,24.00
2015,07,02,12,17,24.10
2015,07,02,12,18,24.20
2015,07,02,12,19,24.30
2015,07,02,12,20,24.40
2015,07,02,12,21,24.50
2015,07,02,12,22,24.50
2015,07,02,12,23,24.60
2015,07,02,12,24,24.70
2015,07,02,12,25,24.80
2015,07,02,12,26,24.80
2015,07,02,12,27,24.80
2015,07,02,12,28,24.70
2015,07,02,12,29,24.70
2015,07,02,12,30,24.70
2015,07,02,12,31,24.60
2015,07,02,12,32,24.70
2015,07,02,12,33,24.80
2015,07,02,12,34,24.90
2015,07,02,12,35,25.00
2015,07,02,12,36,25.10
2015,07,02,12,37,25.10
2015,07,02,12,38,25.10
2015,07,02,12,39,25.20
2015,07,02,12,40,25.10
2015,07,02,12,41,25.10
2015,07,02,12,42,25.10
2015,07,02,12,43,25.20
2015,07,02,12,44,25.20
2015,07,02,12,45,25.10
2015,07,02,12,46,25.10
2015,07,02,12,47,25.00
2015,07,02,12,48,25.00
2015,07,02,12,49,25.10
2015,07,02,12,50,25.20
2015,07,02,12,51,25.30
2015,07,02,12,52,25.50
2015,07,02,12,53,25.60
2015,07,02,12,54,25.70
2015,07,02,12,55,25.70
2015,07,02,12,56,25.80
2015,07,02,12,57,25.80
2015,07,02,12,58,25.80
2015,07,02,12,59,25.80
2015,07,02,13,00,25.90
2015,07,02,13,01,25.90
2015,07,02,13,02,25.90
2015,07,02,13,03,25.90
2015,07,02,13,04,26.00
2015,07,02,13,05,26.00
2015,07,02,13,06,26.10
2015,07,02,13,07,26.10
2015,07,02,13,08,26.10
2015,07,02,13,09,26.20
2015,07,02,13,10,26.20
2015,07,02,13,11,26.20
2015,07,02,13,12,26.30
2015,07,02,13,13,26.40
2015,07,02,13,14,26.50
2015,07,02,13,15,26.60
2015,07,02,13,16,26.60
2015,07,02,13,17,26.70
2015,07,02,13,18,26.70
2015,07,02,13,19,26.70
2015,07,02,13,20,26.60
2015,07,02,13,21,26.60
2015,07,02,13,22,26.70
2015,07,02,13,23,26.70
2015,07,02,13,24,26.70
2015,07,02,13,25,26.80
2015,07,02,13,26,26.80
2015,07,02,13,27,26.90
2015,07,02,13,28,27.00
2015,07,02,13,29,27.10
2015,07,02,13,30,27.10
2015,07,02,13,31,27.10
2015,07,02,13,32,27.00
2015,07,02,13,33,26.80
2015,07,02,13,34,26.70
2015,07,02,13,35,26.60
2015,07,02,13,36,26.60
2015,07,02,13,37,26.60
2015,07,02,13,38,26.80
2015,07,02,13,39,26.90
2015,07,02,13,40,27.10
2015,07,02,13,41,27.20
2015,07,02,13,42,27.20
2015,07,02,13,43,27.30
2015,07,02,13,44,27.30
2015,07,02,13,45,27.30
2015,07,02,13,46,27.30
2015,07,02,13,47,27.20
2015,07,02,13,48,27.20
2015,07,02,13,49,27.20
2015,07,02,13,50,27.20
2015,07,02,13,51,27.10
2015,07,02,13,52,27.00
2015,07,02,13,53,27.00
2015,07,02,13,54,27.00
2015,07,02,13,55,27.00
2015,07,02,13,56,27.10
2015,07,02,13,57,27.10
2015,07,02,13,58,27.10
2015,07,02,13,59,27.10
2015,07,02,14,00,27.10
2015,07,02,14,01,27.20
2015,07,02,14,02,27.20
2015,07,02,14,03,27.30
2015,07,02,14,04,27.40
2015,07,02,14,05,27.40
2015,07,02,14,06,27.50
2015,07,02,14,07,27.50
2015,07,02,14,08,27.50
2015,07,02,14,09,27.50
2015,07,02,14,10,27.50
2015,07,02,14,11,27.40
2015,07,02,14,12,27.40
2015,07,02,14,13,27.40
2015,07,02,14,14,27.40
2015,07,02,14,15,27.50
2015,07,02,14,16,27.60
2015,07,02,14,17,27.60
2015,07,02,14,18,27.80
2015,07,02,14,19,27.80
2015,07,02,14,20,27.80
2015,07,02,14,21,27.90
2015,07,02,14,22,27.90
2015,07,02,14,23,28.00
2015,07,02,14,24,27.90
2015,07,02,14,25,27.90
2015,07,02,14,26,27.90
2015,07,02,14,27,28.00
2015,07,02,14,28,28.10
2015,07,02,14,29,28.10
2015,07,02,14,30,28.20
2015,07,02,14,31,28.20
2015,07,02,14,32,28.20
2015,07,02,14,33,28.20
2015,07,02,14,34,28.20
2015,07,02,14,35,28.20
2015,07,02,14,36,28.20
2015,07,02,14,37,28.20
2015,07,02,14,38,28.20
2015,07,02,14,39,28.20
2015,07,02,14,40,28.20
2015,07,02,14,41,28.30
2015,07,02,14,42,28.40
2015,07,02,14,43,28.40
2015,07,02,14,44,28.40
2015,07,02,14,45,28.40
2015,07,02,14,46,28.40
2015,07,02,14,47,28.30
2015,07,02,14,48,28.30
2015,07,02,14,49,28.30
2015,07,02,14,50,28.40
2015,07,02,14,51,28.40
2015,07,02,14,52,28.40
2015,07,02,14,53,28.40
2015,07,02,14,54,28.40
2015,07,02,14,55,28.40
2015,07,02,14,56,28.50
2015,07,02,14,57,28.60
2015,07,02,14,58,28.60
2015,07,02,14,59,28.60
2015,07,02,15,00,28.70
2015,07,02,15,01,28.70
2015,07,02,15,02,28.70
2015,07,02,15,03,28.80
2015,07,02,15,04,28.80
2015,07,02,15,05,28.80
2015,07,02,15,06,28.80
2015,07,02,15,07,28.70
2015,07,02,15,08,28.70
2015,07,02,15,09,28.70
2015,07,02,15,10,28.70
2015,07,02,15,11,28.70
2015,07,02,15,12,28.80
2015,07,02,15,13,28.80
2015,07,02,15,14,28.90
2015,07,02,15,15,29.00
2015,07,02,15,16,29.00
2015,07,02,15,17,29.00
2015,07,02,15,18,29.00
2015,07,02,15,19,29.10
2015,07,02,15,20,29.10
2015,07,02,15,21,29.10
2015,07,02,15,22,29.00
2015,07,02,15,23,28.90
2015,07,02,15,24,29.00
2015,07,02,15,25,29.10
2015,07,02,15,26,29.10
2015,07,02,15,27,29.10
2015,07,02,15,28,29.10
2015,07,02,15,29,29.10
2015,07,02,15,30,29.00
2015,07,02,15,31,29.00
2015,07,02,15,32,28.90
2015,07,02,15,33,28.90
2015,07,02,15,34,29.00
2015,07,02,15,35,29.00
2015,07,02,15,36,29.10
2015,07,02,15,37,29.10
2015,07,02,15,38,29.10
2015,07,02,15,39,29.10
2015,07,02,15,40,29.20
2015,07,02,15,41,29.20
2015,07,02,15,42,29.30
2015,07,02,15,43,29.30
2015,07,02,15,44,29.30
2015,07,02,15,45,29.30
2015,07,02,15,46,29.30
2015,07,02,15,47,29.30
2015,07,02,15,48,29.40
2015,07,02,15,49,29.40
2015,07,02,15,50,29.50
2015,07,02,15,51,29.60
2015,07,02,15,52,29.60
2015,07,02,15,53,29.50
2015,07,02,15,54,29.50
2015,07,02,15,55,29.50
2015,07,02,15,56,29.50
2015,07,02,15,57,29.50
2015,07,02,15,58,29.50
2015,07,02,15,59,29.40
2015,07,02,16,00,29.30
2015,07,02,16,01,29.30
2015,07,02,16,02,29.30
2015,07,02,16,03,29.30
2015,07,02,16,04,29.30
2015,07,02,16,05,29.30
2015,07,02,16,06,29.30
2015,07,02,16,07,29.30
2015,07,02,16,08,29.40
2015,07,02,16,09,29.50
2015,07,02,16,10,29.60
2015,07,02,16,11,29.70
2015,07,02,16,12,29.70
2015,07,02,16,13,29.70
2015,07,02,16,14,29.70
2015,07,02,16,15,29.70
2015,07,02,16,16,29.80
2015,07,02,16,17,29.80
2015,07,02,16,18,29.70
2015,07,02,16,19,29.60
2015,07,02,16,20,29.50
2015,07,02,16,21,29.40
2015,07,02,16,22,29.40
2015,07,02,16,23,29.40
2015,07,02,16,24,29.40
2015,07,02,16,25,29.40
2015,07,02,16,26,29.40
2015,07,02,16,27,29.40
2015,07,02,16,28,29.40
2015,07,02,16,29,29.40
2015,07,02,16,30,29.50
2015,07,02,16,31,29.50
2015,07,02,16,32,29.50
2015,07,02,16,33,29.50
2015,07,02,16,34,29.50
2015,07,02,16,35,29.40
2015,07,02,16,36,29.40
2015,07,02,16,37,29.40
2015,07,02,16,38,29.50
2015,07,02,16,39,29.50
2015,07,02,16,40,29.60
2015,07,02,16,41,29.60
2015,07,02,16,42,29.60
2015,07,02,16,43,29.60
2015,07,02,16,44,29.60
2015,07,02,16,45,29.50
2015,07,02,16,46,29.50
2015,07,02,16,47,29.50
2015,07,02,16,48,29.40
2015,07,02,16,49,29.50
2015,07,02,16,50,29.50
2015,07,02,16,51,29.50
2015,07,02,16,52,29.60
2015,07,02,16,53,29.60
2015,07,02,16,54,29.70
2015,07,02,16,55,29.60
2015,07,02,16,56,29.60
2015,07,02,16,57,29.60
2015,07,02,16,58,29.60
2015,07,02,16,59,29.50
2015,07,02,17,00,29.50
2015,07,02,17,01,29.40
2015,07,02,17,02,29.40
2015,07,02,17,03,29.40
2015,07,02,17,04,29.40
2015,07,02,17,05,29.40
2015,07,02,17,06,29.40
2015,07,02,17,07,29.50
2015,07,02,17,08,29.50
2015,07,02,17,09,29.50
2015,07,02,17,10,29.50
2015,07,02,17,11,29.40
2015,07,02,17,12,29.40
2015,07,02,17,13,29.40
2015,07,02,17,14,29.50
2015,07,02,17,15,29.50
2015,07,02,17,16,29.50
2015,07,02,17,17,29.50
2015,07,02,17,18,29.50
2015,07,02,17,19,29.50
2015,07,02,17,20,29.50
2015,07,02,17,21,29.50
2015,07,02,17,22,29.50
2015,07,02,17,23,29.50
2015,07,02,17,24,29.50
2015,07,02,17,25,29.50
2015,07,02,17,26,29.50
2015,07,02,17,27,29.50
2015,07,02,17,28,29.50
2015,07,02,17,29,29.60
2015,07,02,17,30,29.50
2015,07,02,17,31,29.50
2015,07,02,17,32,29.50
2015,07,02,17,33,29.50
2015,07,02,17,34,29.40
2015,07,02,17,35,29.40
2015,07,02,17,36,29.40
2015,07,02,17,37,29.40
2015,07,02,17,38,29.40
2015,07,02,17,39,29.40
2015,07,02,17,40,29.40
2015,07,02,17,41,29.40
2015,07,02,17,42,29.30
2015,07,02,17,43,29.30
2015,07,02,17,44,29.20
2015,07,02,17,45,29.20
2015,07,02,17,46,29.20
2015,07,02,17,47,29.20
2015,07,02,17,48,29.20
2015,07,02,17,49,29.10
2015,07,02,17,50,29.10
2015,07,02,17,51,29.10
2015,07,02,17,52,29.10
2015,07,02,17,53,29.10
2015,07,02,17,54,29.10
2015,07,02,17,55,29.00
2015,07,02,17,56,29.00
2015,07,02,17,57,28.90
2015,07,02,17,58,28.90
2015,07,02,17,59,28.80
2015,07,02,18,00,28.70
2015,07,02,18,01,28.70
2015,07,02,18,02,28.70
2015,07,02,18,03,28.70
2015,07,02,18,04,28.70
2015,07,02,18,05,28.60
2015,07,02,18,06,28.60
2015,07,02,18,07,28.50
2015,07,02,18,08,28.50
2015,07,02,18,09,28.50
2015,07,02,18,10,28.50
2015,07,02,18,11,28.40
2015,07,02,18,12,28.40
2015,07,02,18,13,28.40
2015,07,02,18,14,28.30
2015,07,02,18,15,28.20
2015,07,02,18,16,28.20
2015,07,02,18,17,28.20